This demonstration page uses our WeatherBlox Daily Observations layout. Learn more.

Left ArrowRight Arrow

Hourly Observations for October 25, 2021

Temp ( °F °C ) Dew Point ( °F °C ) Humidity (%) Winds ( mph kmh ) Pressure ( in mb ) Visibility ( mi km ) Precip ( " mm )
12:59 am 00:59 Cloudy 68 20 60 15.6 76 76 S 8 13 30.09 1019 10 16 N/A
1:59 am 01:59 Cloudy 68 20 60 15.6 76 76 S 9 15 30.09 1019 10 16 N/A
2:59 am 02:59 Cloudy 67 19.4 61 16.1 81 81 S 5 7 30.09 1019 10 16 N/A
3:59 am 03:59 Cloudy 67 19.4 61 16.1 81 81 S 5 7 30.07 1018 10 16 N/A
4:59 am 04:59 Mostly Cloudy 66 18.9 61 16.1 84 84 S 3 6 30.06 1018 10 16 N/A
5:59 am 05:59 Mostly Cloudy 66 18.9 61 16.1 84 84 SSE 5 7 30.05 1018 10 16 N/A
6:59 am 06:59 Mostly Cloudy 66 18.9 62 16.7 87 87 S 6 9 30.04 1017 10 16 N/A
7:59 am 07:59 Mostly Cloudy 67 19.4 63 17.2 87 87 S 3 6 30.04 1017 9 14 N/A
8:28 am 08:28 Cloudy 68 20 63 17.2 84 84 S 5 7 30.04 1017 9 14 N/A
8:59 am 08:59 Cloudy 69 20.6 64 17.8 84 84 S 3 6 30.04 1017 9 14 N/A
9:59 am 09:59 Mostly Cloudy 71 21.7 64 17.8 79 79 S 6 9 30.02 1017 9 14 N/A
10:59 am 10:59 Mostly Cloudy 74 23.3 66 18.9 76 76 S 9 15 30.00 1016 10 16 N/A
11:59 am 11:59 Cloudy 76 24.4 66 18.9 72 72 SSE 8 13 29.96 1015 10 16 N/A
12:59 pm 12:59 Mostly Cloudy 77 25 67 19.4 71 71 S 9 15 29.92 1013 10 16 N/A
1:59 pm 13:59 Cloudy 69 20.6 61 16.1 76 76 S 12 19 29.90 1013 10 16 0.00 0.00
2:59 pm 14:59 Cloudy 69 20.6 64 17.8 84 84 SSE 5 7 29.85 1011 10 16 0.05 1.27
3:59 pm 15:59 Mostly Cloudy 72 22.2 65 18.3 79 79 SSW 6 9 29.82 1010 10 16 N/A
4:59 pm 16:59 Mostly Cloudy 73 22.8 64 17.8 74 74 SSE 5 7 29.80 1009 10 16 N/A
5:59 pm 17:59 Mostly Cloudy 72 22.2 63 17.2 73 73 S 6 9 29.79 1009 10 16 N/A
6:59 pm 18:59 Mostly Cloudy 70 21.1 63 17.2 79 79 S 6 9 29.77 1008 10 16 N/A
7:59 pm 19:59 Mostly Cloudy 69 20.6 63 17.2 81 81 SE 7 11 29.72 1007 10 16 N/A
8:59 pm 20:59 Mostly Cloudy 69 20.6 63 17.2 81 81 SSE 6 9 29.71 1006 10 16 N/A
9:59 pm 21:59 Mostly Cloudy 69 20.6 63 17.2 81 81 S 5 7 29.70 1006 10 16 N/A
10:59 pm 22:59 Cloudy 68 20 63 17.2 84 84 SSE 6 9 29.67 1005 10 16 N/A
11:59 pm 23:59 Cloudy with Light Rain 68 20 64 17.8 87 87 SSW 7 11 29.65 1004 6 10 0.00 0.00

Powered by AerisWeather